When you browse on this site, cookies collect data to enhance your experience and personalize the content and advertising you see.
Visit our Privacy Policy to learn more. By continuing to use the site, you agree to this use of cookies and data.
  • In Hungary
  • List of Countries
  • For 7 days
  • Water Temperature
  • Weather Map
  • News
  • Weather Widgets
  • user-avatar
    Login

    Hourly Weather Teramo

    Today, 15 November, Friday

    Time Temperature Precipitation Wind Pressure Humidity
    00:00 +10°C° 0 mm 2 mps 726 mmHg 83%
    01:00 +10°C° 0 mm 2 mps 726 mmHg 82%
    02:00 +10°C° 0 mm 2 mps 725 mmHg 81%
    03:00 +10°C° 0 mm 2 mps 725 mmHg 79%
    04:00 +10°C° 0 mm 2 mps 725 mmHg 78%
    05:00 +12°C° 0 mm 2 mps 725 mmHg 78%
    06:00 +12°C° 0 mm 2 mps 725 mmHg 78%
    07:00 +12°C° 0 mm 2 mps 725 mmHg 78%
    08:00 +13°C° 0 mm 2 mps 725 mmHg 74%
    09:00 +14°C° 0 mm 2 mps 725 mmHg 71%
    10:00 +15°C° 0 mm 2 mps 726 mmHg 67%
    11:00 +16°C° 0 mm 3 mps 725 mmHg 63%
    12:00 +17°C° 0 mm 4 mps 725 mmHg 60%
    13:00 +18°C° 0 mm 4 mps 725 mmHg 57%
    14:00 +17°C° 0 mm 4 mps 725 mmHg 61%
    15:00 +15°C° 0 mm 4 mps 724 mmHg 66%
    16:00 +15°C° 0 mm 4 mps 724 mmHg 71%
    17:00 +14°C° 1.5 mm 4 mps 724 mmHg 77%
    18:00 +13°C° 1.5 mm 4 mps 725 mmHg 83%
    19:00 +13°C° 1.5 mm 4 mps 725 mmHg 88%
    20:00 +13°C° 2.1 mm 3 mps 726 mmHg 90%
    21:00 +13°C° 2.1 mm 3 mps 726 mmHg 92%
    22:00 +13°C° 2.1 mm 2 mps 727 mmHg 93%
    23:00 +13°C° 1.6 mm 2 mps 727 mmHg 93%

    Tomorrow, 16 November, Saturday

    Time Temperature Precipitation Wind Pressure Humidity
    00:00 +13°C° 1.6 mm 2 mps 727 mmHg 93%
    01:00 +13°C° 1.6 mm 2 mps 728 mmHg 94%
    02:00 +12°C° 0.7 mm 2 mps 728 mmHg 93%
    03:00 +12°C° 0.7 mm 1 mps 728 mmHg 92%
    04:00 +12°C° 0.7 mm 1 mps 728 mmHg 92%
    05:00 +12°C° 0.8 mm 1 mps 728 mmHg 91%
    06:00 +12°C° 0.8 mm 1 mps 729 mmHg 91%
    07:00 +12°C° 0.8 mm 1 mps 729 mmHg 90%
    08:00 +12°C° 0.5 mm 1 mps 729 mmHg 91%
    09:00 +12°C° 0.5 mm 1 mps 729 mmHg 92%
    10:00 +12°C° 0.5 mm 1 mps 729 mmHg 93%
    11:00 +12°C° 1.6 mm 1 mps 729 mmHg 94%
    12:00 +12°C° 1.6 mm 2 mps 729 mmHg 94%
    13:00 +12°C° 1.6 mm 2 mps 728 mmHg 95%
    14:00 +13°C° 0.3 mm 2 mps 728 mmHg 94%
    15:00 +13°C° 0.3 mm 2 mps 727 mmHg 93%
    16:00 +13°C° 0.3 mm 2 mps 727 mmHg 92%
    17:00 +12°C° 0 mm 2 mps 727 mmHg 93%
    18:00 +12°C° 0 mm 2 mps 726 mmHg 94%
    19:00 +12°C° 0 mm 1 mps 726 mmHg 94%
    20:00 +12°C° 0 mm 1 mps 726 mmHg 94%
    21:00 +11°C° 0 mm 1 mps 725 mmHg 93%
    22:00 +11°C° 0 mm 1 mps 725 mmHg 92%
    23:00 +10°C° 0 mm 2 mps 725 mmHg 92%

    Day after tomorrow, 17 November, Sunday

    Time Temperature Precipitation Wind Pressure Humidity
    00:00 +10°C° 0 mm 2 mps 724 mmHg 91%
    01:00 +10°C° 0 mm 2 mps 724 mmHg 90%
    02:00 +12°C° 0 mm 2 mps 723 mmHg 89%
    03:00 +11°C° 0 mm 3 mps 723 mmHg 88%
    04:00 +11°C° 0 mm 3 mps 722 mmHg 87%
    05:00 +11°C° 0.9 mm 3 mps 722 mmHg 88%
    06:00 +12°C° 0.9 mm 4 mps 721 mmHg 89%
    07:00 +12°C° 0.9 mm 4 mps 721 mmHg 90%
    08:00 +12°C° 1.9 mm 4 mps 721 mmHg 89%
    09:00 +12°C° 1.9 mm 4 mps 722 mmHg 88%
    10:00 +13°C° 1.9 mm 5 mps 722 mmHg 88%
    11:00 +13°C° 0.1 mm 5 mps 722 mmHg 82%
    12:00 +14°C° 0.1 mm 5 mps 722 mmHg 75%
    13:00 +14°C° 0.1 mm 5 mps 723 mmHg 69%
    14:00 +14°C° 0.1 mm 5 mps 723 mmHg 71%
    15:00 +13°C° 0.1 mm 5 mps 724 mmHg 73%
    16:00 +13°C° 0.1 mm 4 mps 724 mmHg 75%
    17:00 +11°C° 0 mm 4 mps 725 mmHg 75%
    18:00 +10°C° 0 mm 4 mps 726 mmHg 75%
    19:00 +9°C° 0 mm 3 mps 726 mmHg 75%
    20:00 +9°C° 0 mm 3 mps 727 mmHg 76%
    21:00 +8°C° 0 mm 3 mps 727 mmHg 76%
    22:00 +8°C° 0 mm 3 mps 728 mmHg 77%
    23:00 +8°C° 0 mm 3 mps 728 mmHg 78%

    18 November, Monday

    Time Temperature Precipitation Wind Pressure Humidity
    00:00 +8°C° 0 mm 3 mps 728 mmHg 78%
    01:00 +8°C° 0 mm 3 mps 728 mmHg 79%
    02:00 +8°C° 0 mm 3 mps 729 mmHg 79%
    03:00 +8°C° 0 mm 3 mps 729 mmHg 80%
    04:00 +8°C° 0 mm 3 mps 729 mmHg 80%
    05:00 +8°C° 0 mm 3 mps 729 mmHg 79%
    06:00 +8°C° 0 mm 3 mps 729 mmHg 79%
    07:00 +7°C° 0 mm 2 mps 729 mmHg 78%
    08:00 +9°C° 0 mm 2 mps 730 mmHg 73%
    09:00 +10°C° 0 mm 2 mps 730 mmHg 68%
    10:00 +13°C° 0 mm 2 mps 730 mmHg 63%
    11:00 +13°C° 0.2 mm 2 mps 730 mmHg 65%
    12:00 +13°C° 0.2 mm 2 mps 730 mmHg 67%
    13:00 +13°C° 0.2 mm 2 mps 730 mmHg 69%
    14:00 +13°C° 0.4 mm 2 mps 730 mmHg 73%
    15:00 +13°C° 0.4 mm 2 mps 730 mmHg 77%
    16:00 +12°C° 0.4 mm 1 mps 729 mmHg 81%
    17:00 +12°C° 0.1 mm 1 mps 730 mmHg 82%
    18:00 +12°C° 0.1 mm 2 mps 730 mmHg 84%
    19:00 +10°C° 0.1 mm 2 mps 730 mmHg 86%
    20:00 +10°C° 0.1 mm 2 mps 730 mmHg 86%
    21:00 +11°C° 0.1 mm 1 mps 730 mmHg 87%
    22:00 +11°C° 0.1 mm 1 mps 730 mmHg 87%
    23:00 +11°C° 0.1 mm 1 mps 729 mmHg 88%

    19 November, Tuesday

    Time Temperature Precipitation Wind Pressure Humidity
    00:00 +11°C° 0.1 mm 1 mps 729 mmHg 89%
    01:00 +11°C° 0.1 mm 1 mps 729 mmHg 89%
    02:00 +11°C° 0.9 mm 1 mps 728 mmHg 90%
    03:00 +11°C° 0.9 mm 1 mps 728 mmHg 91%
    04:00 +10°C° 0.9 mm 1 mps 728 mmHg 92%
    05:00 +11°C° 1.3 mm 1 mps 728 mmHg 91%
    06:00 +11°C° 1.3 mm 1 mps 728 mmHg 91%
    07:00 +11°C° 1.3 mm 1 mps 728 mmHg 91%
    08:00 +11°C° 0.8 mm 1 mps 728 mmHg 90%
    09:00 +11°C° 0.8 mm 1 mps 729 mmHg 89%
    10:00 +12°C° 0.8 mm 1 mps 729 mmHg 88%
    11:00 +12°C° 0.7 mm 1 mps 729 mmHg 89%
    12:00 +12°C° 0.7 mm 2 mps 729 mmHg 89%
    13:00 +12°C° 0.7 mm 2 mps 729 mmHg 90%
    14:00 +12°C° 0.4 mm 2 mps 729 mmHg 90%
    15:00 +10°C° 0.4 mm 2 mps 729 mmHg 90%
    16:00 +10°C° 0.4 mm 2 mps 730 mmHg 90%
    17:00 +10°C° 0 mm 2 mps 730 mmHg 90%
    18:00 +9°C° 0 mm 2 mps 730 mmHg 90%
    19:00 +8°C° 0 mm 2 mps 731 mmHg 90%
    20:00 +8°C° 0 mm 2 mps 731 mmHg 90%
    21:00 +9°C° 0 mm 1 mps 732 mmHg 89%
    22:00 +9°C° 0 mm 1 mps 732 mmHg 89%
    23:00 +8°C° 0 mm 1 mps 733 mmHg 87%

    20 November, Wednesday

    Time Temperature Precipitation Wind Pressure Humidity
    00:00 +8°C° 0 mm 1 mps 733 mmHg 86%
    01:00 +8°C° 0 mm 1 mps 733 mmHg 84%
    02:00 +7°C° 0 mm 2 mps 733 mmHg 82%
    03:00 +6°C° 0 mm 2 mps 733 mmHg 80%
    04:00 +6°C° 0 mm 2 mps 733 mmHg 78%
    05:00 +6°C° 0 mm 2 mps 733 mmHg 76%
    06:00 +6°C° 0 mm 2 mps 733 mmHg 75%
    07:00 +6°C° 0 mm 2 mps 734 mmHg 73%
    08:00 +7°C° 0 mm 2 mps 734 mmHg 69%
    09:00 +10°C° 0 mm 1 mps 734 mmHg 66%
    10:00 +11°C° 0 mm 1 mps 735 mmHg 62%
    11:00 +12°C° 0 mm 2 mps 735 mmHg 62%
    12:00 +12°C° 0 mm 2 mps 734 mmHg 63%
    13:00 +13°C° 0 mm 2 mps 734 mmHg 63%
    14:00 +13°C° 0 mm 2 mps 734 mmHg 67%
    15:00 +12°C° 0 mm 2 mps 734 mmHg 71%
    16:00 +12°C° 0 mm 2 mps 734 mmHg 75%
    17:00 +10°C° 0 mm 2 mps 734 mmHg 77%
    18:00 +10°C° 0 mm 2 mps 734 mmHg 78%
    19:00 +9°C° 0 mm 2 mps 734 mmHg 79%
    20:00 +9°C° 0 mm 2 mps 734 mmHg 80%
    21:00 +8°C° 0 mm 2 mps 734 mmHg 80%
    22:00 +8°C° 0 mm 2 mps 735 mmHg 81%
    23:00 +8°C° 0 mm 2 mps 734 mmHg 79%
    Show more